| time (UTC) | temp F | wind direction | speed knots | gust knots | rain 1hr in | rain 24hr in | rain mn in | humidity % | barometer mb |
| 20260507142507 | 55 | 315 | 0.9 | 8.7 | 0.00 | 0.23 | 0.00 | 61 | 1007.6 |
| 20260507142003 | 56 | 5 | 3.5 | 8.7 | 0.00 | 0.23 | 0.00 | 61 | 1007.6 |
| 20260507141519 | 56 | 50 | 1.7 | 6.1 | 0.00 | 0.23 | 0.00 | 63 | 1007.6 |
| 20260507141003 | 56 | 290 | 1.7 | 6.1 | 0.00 | 0.23 | 0.00 | 66 | 1007.6 |
| 20260507140506 | 56 | 279 | 1.7 | 7.0 | 0.00 | 0.23 | 0.00 | 67 | 1007.5 |
| 20260507140020 | 55 | 245 | 2.6 | 8.7 | 0.00 | 0.23 | 0.00 | 65 | 1007.5 |
| 20260507135507 | 55 | 257 | 3.5 | 8.7 | 0.00 | 0.23 | 0.00 | 63 | 1007.6 |
| 20260507135003 | 57 | 269 | 4.3 | 7.8 | 0.00 | 0.23 | 0.00 | 62 | 1007.5 |
| 20260507134524 | 57 | 315 | 2.6 | 9.6 | 0.00 | 0.23 | 0.00 | 61 | 1007.6 |
| 20260507134005 | 57 | 24 | 1.7 | 9.6 | 0.00 | 0.23 | 0.00 | 59 | 1007.6 |
| 20260507133504 | 57 | 263 | 3.5 | 8.7 | 0.00 | 0.23 | 0.00 | 64 | 1007.5 |
| 20260507133026 | 57 | 33 | 2.6 | 7.8 | 0.00 | 0.23 | 0.00 | 63 | 1007.5 |
| 20260507132504 | 56 | 302 | 2.6 | 7.8 | 0.00 | 0.23 | 0.00 | 62 | 1007.6 |
| 20260507132010 | 56 | 260 | 2.6 | 7.0 | 0.00 | 0.23 | 0.00 | 64 | 1007.7 |
| 20260507131535 | 55 | 280 | 0.9 | 5.2 | 0.00 | 0.23 | 0.00 | 62 | 1007.7 |
| 20260507131004 | 56 | 237 | 1.7 | 7.8 | 0.00 | 0.23 | 0.00 | 68 | 1007.9 |
| 20260507130506 | 54 | 312 | 1.7 | 7.8 | 0.00 | 0.23 | 0.00 | 67 | 1007.9 |
| 20260507130025 | 55 | 340 | 4.3 | 7.8 | 0.00 | 0.23 | 0.00 | 65 | 1007.9 |
| 20260507125503 | 55 | 241 | 2.6 | 6.1 | 0.00 | 0.23 | 0.00 | 66 | 1007.9 |
| 20260507125007 | 54 | 173 | 1.7 | 7.0 | 0.00 | 0.23 | 0.00 | 69 | 1007.8 |
| 20260507124527 | 54 | 350 | 1.7 | 7.0 | 0.00 | 0.23 | 0.00 | 68 | 1007.8 |
| 20260507124006 | 54 | 252 | 2.6 | 7.0 | 0.00 | 0.23 | 0.00 | 70 | 1007.8 |
| 20260507123508 | 54 | 265 | 4.3 | 7.0 | 0.00 | 0.23 | 0.00 | 71 | 1007.8 |
| 20260507123026 | 54 | 170 | 0.9 | 3.5 | 0.00 | 0.23 | 0.00 | 69 | 1007.9 |
| 20260507122505 | 54 | 230 | 0.9 | 5.2 | 0.00 | 0.23 | 0.00 | 71 | 1007.9 |
| 20260507122009 | 53 | 308 | 0.9 | 5.2 | 0.00 | 0.23 | 0.00 | 72 | 1007.9 |
| 20260507121526 | 53 | 319 | 0.9 | 5.2 | 0.00 | 0.23 | 0.00 | 71 | 1007.9 |
| 20260507121005 | 53 | 342 | 0.9 | 4.3 | 0.00 | 0.23 | 0.00 | 75 | 1008.0 |
| 20260507120506 | 52 | 232 | 0.9 | 3.5 | 0.00 | 0.23 | 0.00 | 75 | 1007.9 |
| 20260507120038 | 52 | 310 | 0.9 | 3.5 | 0.00 | 0.23 | 0.00 | 77 | 1007.9 |
| 20260507115504 | 51 | 15 | 0.9 | 3.5 | 0.00 | 0.23 | 0.00 | 77 | 1008.0 |
| 20260507115007 | 50 | 20 | 0.9 | 3.5 | 0.00 | 0.23 | 0.00 | 78 | 1008.0 |
| 20260507114525 | 49 | 290 | 0.0 | 1.7 | 0.00 | 0.23 | 0.00 | 78 | 1007.9 |
| 20260507114003 | 49 | 301 | 0.9 | 1.7 | 0.00 | 0.23 | 0.00 | 79 | 1007.8 |
| 20260507113508 | 49 | 275 | 0.9 | 2.6 | 0.00 | 0.23 | 0.00 | 78 | 1007.9 |
| 20260507113006 | 49 | 231 | 0.0 | 1.7 | 0.00 | 0.23 | 0.00 | 78 | 1007.9 |
| 20260507112510 | 49 | 60 | 0.0 | 1.7 | 0.00 | 0.23 | 0.00 | 79 | 1007.8 |
| 20260507112014 | 49 | 132 | 0.0 | 1.7 | 0.00 | 0.23 | 0.00 | 80 | 1007.9 |
| 20260507111528 | 49 | 144 | 0.0 | 0.9 | 0.00 | 0.23 | 0.00 | 78 | 1007.8 |
| 20260507111006 | 49 | 117 | 0.0 | 1.7 | 0.00 | 0.23 | 0.00 | 82 | 1007.7 |
| 20260507110510 | 48 | 352 | 0.0 | 1.7 | 0.00 | 0.23 | 0.00 | 80 | 1007.7 |
| 20260507110009 | 48 | 360 | 0.0 | 1.7 | 0.00 | 0.23 | 0.00 | 80 | 1007.7 |
| 20260507105508 | 48 | 43 | 0.0 | 1.7 | 0.00 | 0.23 | 0.00 | 81 | 1007.9 |
| 20260507105007 | 48 | 55 | 0.0 | 1.7 | 0.00 | 0.23 | 0.00 | 82 | 1007.8 |
| 20260507104513 | 48 | 322 | 0.0 | 1.7 | 0.00 | 0.23 | 0.00 | 82 | 1007.7 |
| 20260507104004 | 48 | 230 | 0.0 | 1.7 | 0.00 | 0.23 | 0.00 | 82 | 1007.7 |
| 20260507103510 | 47 | 307 | 0.9 | 1.7 | 0.00 | 0.23 | 0.00 | 82 | 1007.5 |
| 20260507103010 | 47 | 59 | 0.9 | 1.7 | 0.00 | 0.23 | 0.00 | 84 | 1007.4 |
| 20260507102512 | 47 | 286 | 0.0 | 1.7 | 0.00 | 0.23 | 0.00 | 83 | 1007.3 |
| 20260507102008 | 47 | 270 | 0.0 | 2.6 | 0.00 | 0.23 | 0.00 | 82 | 1007.3 |
| 20260507101517 | 47 | 286 | 0.9 | 2.6 | 0.00 | 0.23 | 0.00 | 82 | 1007.4 |
| 20260507101006 | 47 | 274 | 0.0 | 6.1 | 0.00 | 0.23 | 0.00 | 82 | 1007.3 |
| 20260507100509 | 47 | 51 | 0.9 | 6.1 | 0.00 | 0.23 | 0.00 | 82 | 1007.3 |
| 20260507100022 | 47 | 309 | 0.9 | 2.6 | 0.00 | 0.23 | 0.00 | 83 | 1007.4 |
| 20260507095508 | 47 | 284 | 0.0 | 2.6 | 0.00 | 0.23 | 0.00 | 83 | 1007.2 |
| 20260507095010 | 47 | 286 | 1.7 | 3.5 | 0.00 | 0.23 | 0.00 | 82 | 1007.3 |
| 20260507094517 | 47 | 316 | 0.9 | 3.5 | 0.00 | 0.23 | 0.00 | 83 | 1007.4 |
| 20260507094006 | 47 | 272 | 0.9 | 3.5 | 0.00 | 0.23 | 0.00 | 83 | 1007.4 |
| 20260507093508 | 47 | 275 | 1.7 | 3.5 | 0.00 | 0.23 | 0.00 | 83 | 1007.7 |
| 20260507093018 | 47 | 304 | 1.7 | 2.6 | 0.00 | 0.23 | 0.00 | 83 | 1007.6 |
| 20260507092506 | 47 | 273 | 0.9 | 2.6 | 0.00 | 0.23 | 0.00 | 84 | 1007.6 |
| 20260507092009 | 47 | 288 | 1.7 | 3.5 | 0.00 | 0.23 | 0.00 | 83 | 1007.6 |
| 20260507091520 | 47 | 271 | 1.7 | 3.5 | 0.00 | 0.23 | 0.00 | 84 | 1007.6 |
| 20260507091008 | 48 | 259 | 1.7 | 3.5 | 0.00 | 0.23 | 0.00 | 84 | 1007.7 |
| 20260507090504 | 47 | 274 | 1.7 | 5.2 | 0.00 | 0.23 | 0.00 | 84 | 1007.5 |
| 20260507090023 | 48 | 234 | 1.7 | 10.4 | 0.00 | 0.23 | 0.00 | 84 | 1007.8 |
| 20260507085508 | 47 | 277 | 3.5 | 10.4 | 0.00 | 0.23 | 0.00 | 85 | 1007.8 |
| 20260507085004 | 47 | 274 | 1.7 | 4.3 | 0.00 | 0.23 | 0.00 | 86 | 1007.8 |
| 20260507084521 | 47 | 281 | 0.0 | 1.7 | 0.00 | 0.23 | 0.00 | 86 | 1007.5 |
| 20260507084009 | 47 | 296 | 0.9 | 1.7 | 0.00 | 0.23 | 0.00 | 86 | 1007.5 |
| 20260507083507 | 47 | 258 | 0.9 | 2.6 | 0.00 | 0.23 | 0.00 | 86 | 1008.0 |
| 20260507083023 | 48 | 267 | 0.9 | 2.6 | 0.00 | 0.23 | 0.00 | 86 | 1007.6 |
| 20260507082506 | 47 | 240 | 0.9 | 1.7 | 0.00 | 0.23 | 0.00 | 86 | 1007.4 |
| 20260507082004 | 48 | 271 | 0.0 | 0.9 | 0.00 | 0.23 | 0.00 | 85 | 1007.5 |
| 20260507081539 | 48 | 271 | 0.0 | 1.7 | 0.00 | 0.23 | 0.00 | 84 | 1007.4 |
| 20260507081008 | 48 | 271 | 0.9 | 2.6 | 0.00 | 0.23 | 0.00 | 82 | 1007.4 |
| 20260507080503 | 48 | 273 | 0.9 | 2.6 | 0.00 | 0.23 | 0.00 | 82 | 1007.6 |
| 20260507080026 | 49 | 342 | 0.0 | 2.6 | 0.00 | 0.23 | 0.00 | 81 | 1007.3 |
| 20260507075512 | 49 | 298 | 0.9 | 2.6 | 0.00 | 0.23 | 0.00 | 79 | 1007.2 |
| 20260507075010 | 49 | 321 | 0.9 | 3.5 | 0.00 | 0.23 | 0.00 | 79 | 1007.1 |
| 20260507074545 | 49 | 340 | 1.7 | 3.5 | 0.00 | 0.23 | 0.00 | 79 | 1007.3 |
| 20260507074010 | 49 | 274 | 0.9 | 7.0 | 0.00 | 0.23 | 0.00 | 80 | 1007.3 |
| 20260507073506 | 50 | 311 | 1.7 | 7.0 | 0.00 | 0.23 | 0.00 | 80 | 1007.3 |
| 20260507073024 | 50 | 227 | 2.6 | 7.8 | 0.00 | 0.23 | 0.00 | 80 | 1007.6 |
| 20260507072510 | 50 | 254 | 2.6 | 7.8 | 0.00 | 0.23 | 0.00 | 81 | 1007.4 |
| 20260507072007 | 50 | 289 | 2.6 | 6.1 | 0.00 | 0.23 | 0.00 | 80 | 1007.1 |
| 20260507071529 | 50 | 275 | 1.7 | 3.5 | 0.00 | 0.23 | 0.00 | 80 | 1006.9 |
| 20260507071012 | 50 | 296 | 0.9 | 3.5 | 0.00 | 0.23 | 0.00 | 80 | 1006.8 |
| 20260507070507 | 50 | 267 | 1.7 | 2.6 | 0.00 | 0.23 | 0.00 | 81 | 1006.9 |
| 20260507070026 | 50 | 234 | 0.9 | 3.5 | 0.00 | 0.23 | 0.00 | 83 | 1006.7 |
| 20260507065510 | 50 | 310 | 0.0 | 3.5 | 0.00 | 0.23 | 0.00 | 83 | 1006.5 |
| 20260507065006 | 51 | 304 | 0.9 | 3.5 | 0.00 | 0.23 | 0.00 | 84 | 1006.9 |
| 20260507064527 | 51 | 293 | 0.9 | 2.6 | 0.00 | 0.23 | 0.00 | 84 | 1006.7 |
| 20260507064009 | 51 | 266 | 0.0 | 2.6 | 0.00 | 0.23 | 0.00 | 85 | 1006.3 |
| 20260507063507 | 51 | 296 | 0.0 | 2.6 | 0.00 | 0.23 | 0.00 | 85 | 1006.2 |
| 20260507063014 | 51 | 297 | 0.9 | 6.1 | 0.00 | 0.23 | 0.00 | 85 | 1006.6 |
| 20260507062503 | 51 | 317 | 2.6 | 6.1 | 0.00 | 0.23 | 0.00 | 84 | 1006.6 |
| 20260507062003 | 51 | 248 | 1.7 | 3.5 | 0.00 | 0.23 | 0.00 | 85 | 1006.6 |
| 20260507061506 | 51 | 281 | 0.9 | 3.5 | 0.00 | 0.23 | 0.00 | 85 | 1006.2 |
| 20260507061007 | 51 | 324 | 0.9 | 6.1 | 0.00 | 0.23 | 0.00 | 85 | 1006.4 |
| 20260507060504 | 51 | 266 | 1.7 | 6.1 | 0.00 | 0.23 | 0.00 | 87 | 1006.6 |
| 20260507060008 | 51 | 300 | 0.9 | 2.6 | 0.00 | 0.23 | 0.00 | 87 | 1006.4 |
| 20260507055504 | 51 | 276 | 0.9 | 2.6 | 0.00 | 0.23 | 0.00 | 87 | 1006.6 |
| 20260507055002 | 52 | 288 | 0.0 | 0.9 | 0.00 | 0.23 | 0.00 | 86 | 1006.5 |
| 20260507054514 | 52 | 288 | 0.0 | 3.5 | 0.00 | 0.23 | 0.00 | 86 | 1006.6 |
| 20260507054008 | 52 | 300 | 0.0 | 3.5 | 0.00 | 0.23 | 0.00 | 85 | 1007.0 |
| 20260507053504 | 52 | 5 | 0.0 | 2.6 | 0.00 | 0.23 | 0.00 | 86 | 1007.1 |
| 20260507053012 | 52 | 254 | 0.0 | 2.6 | 0.00 | 0.23 | 0.00 | 86 | 1007.2 |
| 20260507052507 | 52 | 291 | 0.9 | 2.6 | 0.00 | 0.23 | 0.00 | 87 | 1007.0 |
| 20260507052003 | 52 | 292 | 0.9 | 1.7 | 0.00 | 0.23 | 0.00 | 87 | 1007.2 |
| 20260507051514 | 52 | 282 | 0.9 | 1.7 | 0.00 | 0.23 | 0.00 | 87 | 1007.1 |
| 20260507051012 | 52 | 347 | 0.0 | 1.7 | 0.00 | 0.23 | 0.00 | 87 | 1006.8 |
| 20260507050503 | 53 | 258 | 0.0 | 2.6 | 0.00 | 0.23 | 0.00 | 86 | 1007.1 |
| 20260507050024 | 53 | 290 | 0.9 | 2.6 | 0.00 | 0.23 | 0.00 | 86 | 1007.1 |
| 20260507045508 | 53 | 289 | 0.9 | 1.7 | 0.00 | 0.23 | 0.00 | 87 | 1007.1 |
| 20260507045003 | 53 | 288 | 0.9 | 1.7 | 0.00 | 0.23 | 0.00 | 88 | 1007.0 |
| 20260507044516 | 53 | 320 | 0.0 | 1.7 | 0.00 | 0.23 | 0.00 | 89 | 1006.8 |
| 20260507044007 | 53 | 178 | 0.0 | 1.7 | 0.01 | 0.23 | 0.00 | 89 | 1006.5 |
| 20260507043504 | 53 | 185 | 0.0 | 1.7 | 0.01 | 0.23 | 0.00 | 89 | 1006.5 |
| 20260507043016 | 54 | 285 | 0.0 | 1.7 | 0.01 | 0.23 | 0.00 | 89 | 1006.6 |
| 20260507042507 | 54 | 285 | 0.0 | 1.7 | 0.01 | 0.23 | 0.00 | 88 | 1006.8 |
| 20260507042003 | 54 | 285 | 0.0 | 2.6 | 0.01 | 0.23 | 0.00 | 87 | 1006.6 |
| 20260507041517 | 54 | 285 | 0.0 | 2.6 | 0.01 | 0.23 | 0.00 | 87 | 1006.6 |
| 20260507041007 | 54 | 292 | 0.9 | 2.6 | 0.01 | 0.23 | 0.00 | 86 | 1006.7 |
| 20260507040503 | 54 | 331 | 0.0 | 3.5 | 0.01 | 0.23 | 0.00 | 86 | 1006.6 |
| 20260507040027 | 54 | 290 | 0.9 | 6.1 | 0.01 | 0.23 | 0.00 | 86 | 1006.8 |
| 20260507035502 | 55 | 288 | 2.6 | 6.1 | 0.01 | 0.23 | 0.23 | 85 | 1006.7 |
| 20260507035002 | 55 | 306 | 0.9 | 7.0 | 0.01 | 0.23 | 0.23 | 84 | 1006.7 |
| 20260507034521 | 55 | 244 | 3.5 | 7.0 | 0.01 | 0.23 | 0.23 | 1006.7 | |
| 20260507034002 | 56 | 289 | 1.7 | 7.8 | 0.00 | 0.22 | 0.22 | 1006.5 | |
| 20260507033502 | 56 | 284 | 1.7 | 7.8 | 0.00 | 0.22 | 0.22 | 1006.4 | |
| 20260507033021 | 56 | 261 | 0.9 | 5.2 | 0.00 | 0.22 | 0.22 | 88 | 1006.4 |
| 20260507032501 | 56 | 330 | 1.7 | 3.5 | 0.00 | 0.22 | 0.22 | 88 | 1006.2 |
| 20260507032005 | 57 | 302 | 0.0 | 1.7 | 0.00 | 0.22 | 0.22 | 89 | 1006.2 |
| 20260507031522 | 57 | 302 | 0.0 | 3.5 | 0.00 | 0.22 | 0.22 | 89 | 1006.0 |
| 20260507031003 | 57 | 302 | 0.9 | 6.1 | 0.00 | 0.22 | 0.22 | 88 | 1006.0 |
| 20260507030503 | 58 | 288 | 1.7 | 6.1 | 0.00 | 0.22 | 0.22 | 88 | 1005.9 |
| 20260507030023 | 58 | 290 | 0.9 | 6.1 | 0.00 | 0.22 | 0.22 | 88 | 1005.7 |
| 20260507025503 | 58 | 258 | 1.7 | 7.8 | 0.00 | 0.22 | 0.22 | 89 | 1005.7 |
| 20260507025006 | 59 | 305 | 3.5 | 11.3 | 0.00 | 0.22 | 0.22 | 90 | 1005.7 |
| 20260507024525 | 59 | 307 | 0.9 | 11.3 | 0.00 | 0.22 | 0.22 | 92 | 1005.8 |
| 20260507024002 | 59 | 236 | 3.5 | 6.1 | 0.00 | 0.22 | 0.22 | 92 | 1005.9 |
| 20260507023505 | 59 | 269 | 0.9 | 4.3 | 0.00 | 0.22 | 0.22 | 93 | 1005.8 |
| 20260507023028 | 59 | 288 | 1.7 | 6.1 | 0.00 | 0.22 | 0.22 | 93 | 1005.7 |
| 20260507022510 | 59 | 232 | 2.6 | 6.1 | 0.00 | 0.22 | 0.22 | 93 | 1005.7 |
| 20260507022005 | 59 | 263 | 0.9 | 3.5 | 0.00 | 0.22 | 0.22 | 93 | 1005.8 |
| 20260507021524 | 59 | 256 | 0.9 | 2.6 | 0.00 | 0.22 | 0.22 | 93 | 1005.8 |
| 20260507021002 | 59 | 274 | 0.0 | 1.7 | 0.00 | 0.22 | 0.22 | 93 | 1005.6 |
| 20260507020505 | 58 | 296 | 0.9 | 1.7 | 0.00 | 0.22 | 0.22 | 93 | 1005.5 |
| 20260507020027 | 58 | 144 | 0.0 | 1.7 | 0.00 | 0.22 | 0.22 | 92 | 1005.4 |
| 20260507015503 | 58 | 128 | 0.0 | 1.7 | 0.00 | 0.22 | 0.22 | 92 | 1005.4 |
| 20260507015006 | 59 | 140 | 0.0 | 1.7 | 0.00 | 0.22 | 0.22 | 92 | 1005.5 |
| 20260507014542 | 59 | 140 | 0.0 | 1.7 | 0.00 | 0.22 | 0.22 | 92 | 1005.5 |
| 20260507014004 | 59 | 144 | 0.0 | 1.7 | 0.00 | 0.22 | 0.22 | 92 | 1005.4 |
| 20260507013506 | 59 | 144 | 0.0 | 1.7 | 0.00 | 0.22 | 0.22 | 92 | 1005.4 |
| 20260507013026 | 59 | 128 | 0.0 | 1.7 | 0.00 | 0.22 | 0.22 | 92 | 1005.5 |
| 20260507012503 | 59 | 63 | 0.0 | 1.7 | 0.00 | 0.22 | 0.22 | 92 | 1005.4 |
| 20260507012010 | 59 | 332 | 0.0 | 1.7 | 0.00 | 0.22 | 0.22 | 92 | 1005.4 |
| 20260507011504 | 59 | 71 | 0.0 | 1.7 | 0.00 | 0.22 | 0.22 | 92 | 1005.5 |
| 20260507011010 | 59 | 71 | 0.0 | 1.7 | 0.00 | 0.22 | 0.22 | 92 | 1005.4 |
| 20260507010505 | 59 | 77 | 0.0 | 2.6 | 0.00 | 0.22 | 0.22 | 92 | 1005.4 |
| 20260507010009 | 59 | 61 | 0.9 | 2.6 | 0.00 | 0.22 | 0.22 | 92 | 1005.4 |
| 20260507005505 | 59 | 272 | 0.0 | 6.1 | 0.00 | 0.22 | 0.22 | 92 | 1005.4 |
| 20260507005010 | 59 | 63 | 0.0 | 6.1 | 0.00 | 0.22 | 0.22 | 92 | 1005.5 |
| 20260507004510 | 59 | 169 | 0.9 | 2.6 | 0.00 | 0.22 | 0.22 | 92 | 1005.5 |
| 20260507004010 | 59 | 272 | 0.0 | 2.6 | 0.00 | 0.22 | 0.22 | 92 | 1005.4 |
| 20260507003512 | 59 | 188 | 1.7 | 3.5 | 0.00 | 0.22 | 0.22 | 91 | 1005.3 |
| 20260507003008 | 59 | 240 | 0.9 | 3.5 | 0.00 | 0.22 | 0.22 | 91 | 1005.3 |
| 20260507002506 | 59 | 148 | 0.9 | 7.0 | 0.00 | 0.22 | 0.22 | 91 | 1005.2 |
| 20260507002010 | 59 | 290 | 0.9 | 7.0 | 0.00 | 0.22 | 0.22 | 91 | 1005.1 |
| 20260507001510 | 59 | 92 | 0.9 | 7.0 | 0.00 | 0.22 | 0.22 | 91 | 1005.0 |
| 20260507001007 | 59 | 190 | 0.9 | 7.0 | 0.00 | 0.22 | 0.22 | 91 | 1005.0 |
| 20260507000510 | 59 | 235 | 1.7 | 7.0 | 0.00 | 0.22 | 0.22 | 91 | 1005.0 |
| 20260507000012 | 59 | 142 | 0.9 | 6.1 | 0.00 | 0.22 | 0.22 | 91 | 1005.2 |
| 20260506235507 | 59 | 284 | 2.6 | 5.2 | 0.01 | 0.22 | 0.22 | 91 | 1005.2 |
| 20260506235008 | 59 | 223 | 0.0 | 6.1 | 0.02 | 0.22 | 0.22 | 91 | 1005.1 |
| 20260506234515 | 59 | 204 | 0.9 | 6.1 | 0.03 | 0.22 | 0.22 | 91 | 1005.1 |
| 20260506234009 | 59 | 233 | 1.7 | 3.5 | 0.03 | 0.22 | 0.22 | 91 | 1005.1 |
| 20260506233509 | 59 | 140 | 0.9 | 3.5 | 0.04 | 0.22 | 0.22 | 91 | 1005.0 |
| 20260506233027 | 59 | 207 | 0.9 | 4.3 | 0.04 | 0.22 | 0.22 | 91 | 1005.1 |
| 20260506232506 | 59 | 244 | 0.9 | 4.3 | 0.05 | 0.22 | 0.22 | 91 | 1005.1 |
| 20260506232010 | 59 | 291 | 0.0 | 3.5 | 0.06 | 0.22 | 0.22 | 91 | 1005.1 |
| 20260506231515 | 59 | 242 | 0.0 | 6.1 | 0.06 | 0.22 | 0.22 | 91 | 1005.1 |
| 20260506231008 | 59 | 62 | 1.7 | 6.1 | 0.06 | 0.22 | 0.22 | 91 | 1005.2 |
| 20260506230507 | 59 | 180 | 1.7 | 5.2 | 0.07 | 0.22 | 0.22 | 91 | 1005.1 |
| 20260506230017 | 59 | 263 | 0.0 | 4.3 | 0.07 | 0.22 | 0.22 | 91 | 1005.3 |
| 20260506225508 | 59 | 146 | 1.7 | 4.3 | 0.06 | 0.21 | 0.21 | 91 | 1005.2 |
| 20260506225003 | 59 | 11 | 0.9 | 3.5 | 0.05 | 0.20 | 0.20 | 91 | 1005.3 |
| 20260506224518 | 59 | 246 | 0.9 | 6.1 | 0.04 | 0.19 | 0.19 | 91 | 1005.3 |
| 20260506224006 | 59 | 140 | 0.9 | 5.2 | 0.05 | 0.19 | 0.19 | 91 | 1005.3 |
| 20260506223502 | 59 | 272 | 1.7 | 8.7 | 0.04 | 0.18 | 0.18 | 91 | 1005.4 |
| 20260506223020 | 59 | 205 | 1.7 | 8.7 | 0.05 | 0.18 | 0.18 | 91 | 1005.3 |
| 20260506222506 | 59 | 226 | 0.9 | 5.2 | 0.05 | 0.17 | 0.17 | 90 | 1005.2 |
| 20260506222006 | 59 | 234 | 1.7 | 7.0 | 0.04 | 0.16 | 0.16 | 90 | 1005.2 |
| 20260506221520 | 59 | 157 | 1.7 | 7.0 | 0.04 | 0.16 | 0.16 | 90 | 1005.3 |
| 20260506221014 | 59 | 278 | 2.6 | 9.6 | 0.04 | 0.16 | 0.16 | 90 | 1005.3 |
| 20260506220507 | 59 | 185 | 0.9 | 9.6 | 0.03 | 0.15 | 0.15 | 90 | 1005.4 |
| 20260506220024 | 59 | 263 | 3.5 | 13.0 | 0.03 | 0.15 | 0.15 | 90 | 1005.4 |
| 20260506215511 | 59 | 109 | 4.3 | 13.0 | 0.03 | 0.15 | 0.15 | 90 | 1005.3 |
| 20260506215006 | 59 | 215 | 1.7 | 7.0 | 0.03 | 0.15 | 0.15 | 90 | 1005.4 |
| 20260506214520 | 59 | 214 | 1.7 | 6.1 | 0.04 | 0.15 | 0.15 | 90 | 1005.4 |
| 20260506214009 | 59 | 151 | 2.6 | 7.0 | 0.03 | 0.14 | 0.14 | 90 | 1005.5 |
| 20260506213505 | 59 | 274 | 0.9 | 7.0 | 0.04 | 0.14 | 0.14 | 89 | 1005.5 |
| 20260506213023 | 59 | 238 | 0.9 | 6.1 | 0.04 | 0.13 | 0.13 | 89 | 1005.4 |
| 20260506212509 | 60 | 289 | 0.9 | 6.1 | 0.03 | 0.12 | 0.12 | 89 | 1005.4 |
| 20260506212006 | 60 | 74 | 1.7 | 6.1 | 0.04 | 0.12 | 0.12 | 89 | 1005.5 |
| 20260506211524 | 60 | 263 | 2.6 | 7.8 | 0.04 | 0.12 | 0.12 | 89 | 1005.6 |
| 20260506211010 | 60 | 16 | 1.7 | 7.8 | 0.04 | 0.12 | 0.12 | 89 | 1005.6 |
| 20260506210506 | 60 | 74 | 0.9 | 10.4 | 0.05 | 0.12 | 0.12 | 89 | 1005.7 |
| 20260506210028 | 60 | 190 | 2.6 | 11.3 | 0.05 | 0.12 | 0.12 | 89 | 1005.8 |
| 20260506205511 | 60 | 132 | 3.5 | 11.3 | 0.06 | 0.12 | 0.12 | 90 | 1005.8 |
| 20260506205007 | 60 | 127 | 0.9 | 7.0 | 0.06 | 0.12 | 0.12 | 89 | 1005.8 |
| 20260506204525 | 60 | 81 | 0.9 | 6.1 | 0.05 | 0.11 | 0.11 | 89 | 1005.9 |
| 20260506204009 | 60 | 75 | 0.9 | 7.0 | 0.05 | 0.11 | 0.11 | 89 | 1006.0 |
| 20260506203508 | 60 | 298 | 0.9 | 7.0 | 0.04 | 0.10 | 0.10 | 89 | 1006.0 |
| 20260506203023 | 60 | 262 | 1.7 | 6.1 | 0.03 | 0.09 | 0.09 | 88 | 1006.1 |
| 20260506202502 | 60 | 235 | 1.7 | 7.8 | 0.03 | 0.09 | 0.09 | 88 | 1006.0 |
| 20260506202008 | 61 | 238 | 1.7 | 11.3 | 0.02 | 0.08 | 0.08 | 87 | 1006.0 |
| 20260506201526 | 61 | 271 | 2.6 | 11.3 | 0.02 | 0.08 | 0.08 | 87 | 1006.1 |
| 20260506201003 | 61 | 160 | 2.6 | 9.6 | 0.02 | 0.08 | 0.08 | 87 | 1006.0 |
| 20260506200510 | 61 | 189 | 1.7 | 6.1 | 0.01 | 0.07 | 0.07 | 87 | 1006.0 |
| 20260506200025 | 61 | 157 | 1.7 | 8.7 | 0.01 | 0.07 | 0.07 | 86 | 1006.1 |
| 20260506195509 | 62 | 168 | 0.9 | 8.7 | 0.00 | 0.06 | 0.06 | 85 | 1006.1 |
| 20260506195006 | 62 | 238 | 5.2 | 7.8 | 0.01 | 0.06 | 0.06 | 86 | 1006.2 |
| 20260506194527 | 62 | 149 | 0.9 | 6.1 | 0.01 | 0.06 | 0.06 | 86 | 1006.2 |
| 20260506194007 | 62 | 314 | 2.6 | 6.1 | 0.02 | 0.06 | 0.06 | 85 | 1006.2 |
| 20260506193511 | 62 | 317 | 0.9 | 7.0 | 0.02 | 0.06 | 0.06 | 85 | 1006.2 |
| 20260506193031 | 62 | 222 | 2.6 | 10.4 | 0.03 | 0.06 | 0.06 | 85 | 1006.1 |
| 20260506192508 | 62 | 10 | 4.3 | 10.4 | 0.03 | 0.06 | 0.06 | 85 | 1006.1 |
| 20260506192010 | 62 | 67 | 2.6 | 10.4 | 0.04 | 0.06 | 0.06 | 86 | 1006.1 |
| 20260506191528 | 62 | 229 | 2.6 | 10.4 | 0.04 | 0.06 | 0.06 | 87 | 1006.1 |
| 20260506191010 | 62 | 295 | 0.9 | 4.3 | 0.04 | 0.06 | 0.06 | 88 | 1006.2 |
| 20260506190509 | 62 | 262 | 0.9 | 4.3 | 0.06 | 0.06 | 0.06 | 87 | 1006.1 |
| 20260506190008 | 62 | 190 | 0.0 | 2.6 | 0.06 | 0.06 | 0.06 | 87 | 1006.0 |
| 20260506185506 | 62 | 200 | 0.0 | 6.1 | 0.06 | 0.06 | 0.06 | 85 | 1006.1 |
| 20260506185009 | 62 | 265 | 1.7 | 6.1 | 0.05 | 0.05 | 0.05 | 85 | 1006.2 |
| 20260506184511 | 62 | 271 | 1.7 | 6.1 | 0.05 | 0.05 | 0.05 | 85 | 1006.3 |
| 20260506184006 | 63 | 237 | 2.6 | 11.3 | 0.04 | 0.04 | 0.04 | 83 | 1006.3 |
| 20260506183507 | 63 | 278 | 3.5 | 11.3 | 0.04 | 0.04 | 0.04 | 82 | 1006.5 |
| 20260506183013 | 63 | 302 | 4.3 | 9.6 | 0.03 | 0.03 | 0.03 | 81 | 1006.4 |
| 20260506182506 | 63 | 225 | 4.3 | 8.7 | 0.03 | 0.03 | 0.03 | 82 | 1006.5 |
| 20260506182009 | 63 | 244 | 0.9 | 7.0 | 0.02 | 0.02 | 0.02 | 82 | 1006.8 |
| 20260506181512 | 64 | 245 | 2.6 | 7.0 | 0.02 | 0.02 | 0.02 | 80 | 1006.8 |
| 20260506181010 | 65 | 282 | 1.7 | 9.6 | 0.02 | 0.02 | 0.02 | 77 | 1006.8 |
| 20260506180506 | 66 | 224 | 5.2 | 9.6 | 0.00 | 0.00 | 0.00 | 72 | 1007.0 |
| 20260506180012 | 67 | 294 | 2.6 | 8.7 | 0.00 | 0.00 | 0.00 | 67 | 1006.8 |
| 20260506175507 | 68 | 249 | 4.3 | 8.7 | 0.00 | 0.00 | 0.00 | 64 | 1006.8 |
| 20260506175003 | 69 | 275 | 1.7 | 6.1 | 0.00 | 0.00 | 0.00 | 61 | 1006.7 |
| 20260506174529 | 69 | 229 | 1.7 | 9.6 | 0.00 | 0.00 | 0.00 | 60 | 1006.7 |
| 20260506174010 | 70 | 274 | 2.6 | 10.4 | 0.00 | 0.00 | 0.00 | 59 | 1006.6 |
| 20260506173502 | 70 | 261 | 6.1 | 14.8 | 0.00 | 0.00 | 0.00 | 59 | 1006.5 |
| 20260506173016 | 70 | 211 | 7.8 | 16.5 | 0.00 | 0.00 | 0.00 | 57 | 1006.5 |
| 20260506172506 | 70 | 271 | 7.8 | 23.5 | 0.00 | 0.00 | 0.00 | 57 | 1006.6 |
| 20260506172008 | 71 | 262 | 3.5 | 23.5 | 0.00 | 0.00 | 0.00 | 58 | 1006.5 |
| 20260506171521 | 71 | 205 | 6.1 | 13.0 | 0.00 | 0.00 | 0.00 | 56 | 1006.4 |
| 20260506171006 | 71 | 283 | 3.5 | 11.3 | 0.00 | 0.00 | 0.00 | 55 | 1006.4 |
| 20260506170505 | 71 | 324 | 3.5 | 10.4 | 0.00 | 0.00 | 0.00 | 58 | 1006.4 |
| 20260506170026 | 72 | 254 | 4.3 | 10.4 | 0.00 | 0.00 | 0.00 | 57 | 1006.6 |
| 20260506165513 | 71 | 284 | 5.2 | 9.6 | 0.00 | 0.00 | 0.00 | 56 | 1006.6 |
| 20260506165003 | 72 | 160 | 5.2 | 9.6 | 0.00 | 0.00 | 0.00 | 58 | 1006.7 |
| 20260506164518 | 71 | 321 | 2.6 | 7.8 | 0.00 | 0.00 | 0.00 | 58 | 1006.8 |
| 20260506164011 | 71 | 110 | 3.5 | 9.6 | 0.00 | 0.00 | 0.00 | 57 | 1006.8 |
| 20260506163503 | 71 | 228 | 4.3 | 9.6 | 0.00 | 0.00 | 0.00 | 60 | 1007.1 |
| 20260506163041 | 70 | 218 | 3.5 | 10.4 | 0.00 | 0.00 | 0.00 | 59 | 1006.9 |
| 20260506162512 | 70 | 352 | 4.3 | 10.4 | 0.00 | 0.00 | 0.00 | 59 | 1007.1 |
| 20260506162005 | 70 | 85 | 3.5 | 7.0 | 0.00 | 0.00 | 0.00 | 62 | 1007.1 |
| 20260506161524 | 70 | 240 | 1.7 | 7.0 | 0.00 | 0.00 | 0.00 | 62 | 1007.3 |
| 20260506161010 | 70 | 252 | 0.9 | 7.8 | 0.00 | 0.00 | 0.00 | 62 | 1007.2 |
| 20260506160506 | 69 | 296 | 3.5 | 7.8 | 0.00 | 0.00 | 0.00 | 65 | 1007.3 |
| 20260506160024 | 70 | 234 | 1.7 | 7.0 | 0.00 | 0.00 | 0.00 | 61 | 1007.5 |
| 20260506155503 | 69 | 279 | 3.5 | 7.0 | 0.00 | 0.00 | 0.00 | 63 | 1007.6 |
| 20260506155010 | 69 | 231 | 0.9 | 8.7 | 0.00 | 0.00 | 0.00 | 65 | 1007.7 |
| 20260506154526 | 69 | 117 | 2.6 | 8.7 | 0.00 | 0.00 | 0.00 | 64 | 1007.7 |
| 20260506154008 | 69 | 174 | 1.7 | 7.8 | 0.00 | 0.00 | 0.00 | 64 | 1007.9 |
| 20260506153506 | 68 | 203 | 1.7 | 7.8 | 0.00 | 0.00 | 0.00 | 64 | 1008.0 |
| 20260506153028 | 68 | 248 | 4.3 | 7.8 | 0.00 | 0.00 | 0.00 | 66 | 1008.1 |
| 20260506152505 | 68 | 303 | 1.7 | 7.8 | 0.00 | 0.00 | 0.00 | 66 | 1008.1 |
| 20260506152014 | 68 | 313 | 1.7 | 7.8 | 0.00 | 0.00 | 0.00 | 66 | 1008.3 |
| 20260506151524 | 68 | 283 | 3.5 | 12.2 | 0.00 | 0.00 | 0.00 | 65 | 1008.3 |
| 20260506151004 | 68 | 232 | 3.5 | 12.2 | 0.00 | 0.00 | 0.00 | 65 | 1008.5 |
| 20260506150506 | 68 | 152 | 4.3 | 11.3 | 0.00 | 0.00 | 0.00 | 65 | 1008.5 |
| 20260506150027 | 68 | 254 | 2.6 | 13.0 | 0.00 | 0.00 | 0.00 | 66 | 1008.6 |
| 20260506145508 | 68 | 194 | 5.2 | 13.9 | 0.00 | 0.00 | 0.00 | 65 | 1008.3 |
| 20260506145007 | 68 | 319 | 1.7 | 13.9 | 0.00 | 0.00 | 0.00 | 67 | 1008.3 |
| 20260506144527 | 67 | 148 | 4.3 | 10.4 | 0.00 | 0.00 | 0.00 | 66 | 1008.6 |
| 20260506144004 | 67 | 135 | 1.7 | 8.7 | 0.00 | 0.00 | 0.00 | 68 | 1008.6 |
| 20260506143510 | 67 | 124 | 3.5 | 8.7 | 0.00 | 0.00 | 0.00 | 67 | 1008.6 |
| 20260506143033 | 67 | 260 | 4.3 | 7.8 | 0.00 | 0.00 | 0.00 | 67 | 1008.5 |